Location: La Trinit�
(48.1620°N, 3.4512°W)
Time: 09:22:06
(UTC+00:00)

Meteor 2-6 Rocket - Pass Details

Date: 08 May 2021
Orbit: 807 x 913 km, 81.3° (Epoch: 12 June)

Event Time Altitude Azimuth Distance (km) Brightness Sun altitude
Exits shadow 22:23:33 23° 206° (SSW) 1,653 5.4 -20.3°
Maximum altitude 22:26:55 68° 284° (WNW) 884 4.4 -20.5°
Drops below altitude 10° 22:32:25 10° 7° (N) 2,448 7.4 -20.9°
Sets 22:34:53 0° 10° (N) 3,400 8.2 -21.1°
